Location: Lake Lucerne
(45.5315°N, 88.8489°W)
Time: 06:26:47
(UTC-05:00)

Envisat - Visible Passes

Search period start: 19 April 2018 00:00
Search period end: 29 April 2018 00:00
Orbit: 764 x 766 km, 98.2° (Epoch: 19 April)

Date Brightness Start Highest point End Pass type
(mag) Time Alt. Az. Time Alt. Az. Time Alt. Az.
19 Apr 3.3 20:21:30 10° S 20:26:34 75° WSW 20:31:41 10° NNW visible
20 Apr 5.4 21:25:27 10° SW 21:29:15 21° W 21:33:03 10° NW visible
21 Apr 4.2 20:47:24 10° S 20:52:14 43° W 20:57:05 10° NNW visible
22 Apr 5.8 21:53:13 10° WSW 21:55:09 12° W 21:57:04 10° WNW visible
23 Apr 5.1 21:13:47 10° SSW 21:17:59 26° W 21:22:13 10° NW visible
24 Apr 3.8 20:36:05 10° S 20:41:03 54° W 20:46:03 10° NNW visible
25 Apr 5.7 21:40:54 10° SW 21:43:50 15° W 21:46:47 10° NW visible
26 Apr 4.7 21:02:14 10° SSW 21:06:45 32° W 21:11:18 10° NNW visible
27 Apr 3.4 20:24:49 10° S 20:29:52 68° WSW 20:34:57 10° NNW visible
28 Apr 5.5 21:28:59 10° SW 21:32:34 19° W 21:36:10 10° NW visible
